DW8626 Madrid ES current weather conditions

sailwx.info

Wind from 036 at 3 knots gusting 6

Air temperature 18.9° C
Dewpoint 2.7° C

Last reported at 2016-May-04 08:32 UTC.
Time now 2016-May-04 09:48 UTC

Location: N 40°29' W 003°43'.
View on Google Maps.

See reports from other nearby stations

  
Tides and Currents Weather Stations Pressure Air Temp Water Temp Dewpoint Dewpoint Depression Visibility Wind Speed Wind Dir Waves Ship Positions
date/time (UTC)wind fromknots sea level pressurealtimeterstation pressurevisibilityair tempwater tempwave heightnotes
2016-May-04 08:32 036 3 gusting 6 18.9
2016-May-04 08:17 084 4 gusting 5 18.3
2016-May-04 08:02 049 3 gusting 6 17.8
2016-May-04 07:47 027 4 gusting 6 17.2
2016-May-04 07:32 047 3 gusting 7 16.7
2016-May-04 07:17 011 2 gusting 6 15.6
2016-May-04 07:02 026 5 gusting 10 15.0
2016-May-04 05:47 054 6 gusting 9 13.3
2016-May-04 05:32 054 6 gusting 10 12.8
2016-May-04 05:17 043 6 gusting 11 12.8
2016-May-04 05:02 020 5 gusting 9 12.8
2016-May-04 04:47 063 4 gusting 8 13.3
2016-May-04 04:32 030 6 gusting 10 13.3
2016-May-04 04:17 026 6 gusting 9 13.3
2016-May-04 04:02 032 6 gusting 10 13.9
2016-May-04 03:47 049 7 gusting 10 13.9
2016-May-04 03:32 018 6 gusting 11 13.9
2016-May-04 03:17 007 3 gusting 6 14.4
2016-May-04 03:02 032 4 gusting 7 14.4
2016-May-04 02:47 060 3 gusting 6 14.4
2016-May-04 02:32 058 3 gusting 9 15.0
2016-May-04 02:17 061 6 gusting 11 15.0
2016-May-04 02:02 075 5 gusting 9 15.6
2016-May-04 01:47 035 5 gusting 11 15.6
2016-May-04 01:32 058 2 gusting 7 15.6
2016-May-04 01:17 006 3 gusting 10 16.1
2016-May-04 01:02 047 7 gusting 12 16.7
2016-May-04 00:47 058 4 gusting 11 16.7
2016-May-04 00:33 077 4 gusting 10 16.7
2016-May-04 00:17 046 7 gusting 9 17.2
2016-May-04 00:02 032 6 gusting 9 17.2
2016-May-03 23:48 065 4 gusting 8 17.8
2016-May-03 23:32 032 1 gusting 7 17.8
2016-May-03 23:17 044 6 gusting 8 17.8
2016-May-03 23:02 018 5 gusting 8 18.3
2016-May-03 22:47 033 4 gusting 6 18.9
2016-May-03 22:32 071 1 gusting 6 20.0
2016-May-03 22:17 069 5 gusting 7 20.6
2016-May-03 22:02 214 19.4
2016-May-03 21:47 214 19.4
2016-May-03 21:32 208 0 gusting 3 20.0
2016-May-03 21:17 094 22.2
2016-May-03 21:02 093 22.2
2016-May-03 20:47 094 22.2
2016-May-03 20:32 081 22.2
2016-May-03 20:17 062 22.8
2016-May-03 20:02 066 23.3
2016-May-03 19:47 050 23.3
2016-May-03 19:32 043 23.3
2016-May-03 19:17 078 23.3
2016-May-03 19:02 061 24.4
2016-May-03 18:48 086 24.4
2016-May-03 18:32 099 0 gusting 3 24.4
2016-May-03 18:17 083 1 gusting 3 25.0
2016-May-03 18:02 131 25.0
2016-May-03 17:47 073 1 gusting 4 25.0
2016-May-03 17:32 061 1 gusting 3 25.0
2016-May-03 17:17 117 1 gusting 6 25.0
2016-May-03 17:03 294 0 gusting 6 25.0
2016-May-03 16:47 120 4 gusting 7 25.0
2016-May-03 16:32 088 4 gusting 8 25.0
2016-May-03 16:17 063 1 gusting 6 25.0
2016-May-03 16:02 115 0 gusting 5 25.0
2016-May-03 15:47 065 0 gusting 6 25.0
2016-May-03 15:32 015 1 gusting 8 24.4
2016-May-03 15:17 121 4 gusting 6 24.4
2016-May-03 15:02 137 2 gusting 7 24.4
2016-May-03 14:47 355 0 gusting 6 23.9
2016-May-03 14:32 070 4 gusting 9 23.9
2016-May-03 14:17 011 6 gusting 9 24.4
2016-May-03 14:02 045 4 gusting 8 23.9
2016-May-03 13:47 001 4 gusting 7 23.9
2016-May-03 13:32 311 2 gusting 7 23.9
2016-May-03 13:17 021 6 gusting 8 23.3
2016-May-03 13:02 098 2 gusting 13 23.3
2016-May-03 12:47 110 1 gusting 4 23.9
2016-May-03 12:32 076 1 gusting 4 23.3
2016-May-03 12:17 077 0 gusting 7 22.8
2016-May-03 12:02 196 22.8
2016-May-03 11:48 148 1 gusting 6 22.8
2016-May-03 11:32 121 4 gusting 8 21.7
2016-May-03 11:17 029 4 gusting 9 21.1
2016-May-03 11:02 160 2 gusting 6 21.7
2016-May-03 10:47 108 20.6
2016-May-03 10:32 138 1 gusting 6 20.6
2016-May-03 10:17 139 1 gusting 8 20.0
2016-May-03 10:03 290 19.4
2016-May-03 09:47 270 2 gusting 7 18.9
2016-May-03 09:32 060 7 gusting 9 17.8
2016-May-03 09:17 036 6 gusting 8 17.2
2016-May-03 09:03 066 4 gusting 8 17.2
2016-May-03 08:47 345 5 gusting 6 17.8
2016-May-03 08:32 037 2 gusting 6 16.7
2016-May-03 08:17 203 1 gusting 6 16.7
2016-May-03 08:02 349 16.1
2016-May-03 07:47 066 0 gusting 6 15.6
2016-May-03 07:32 027 3 gusting 6 14.4
2016-May-03 07:17 075 1 gusting 7 13.9
2016-May-03 07:02 043 0 gusting 2 14.4
2016-May-03 06:47 020 13.3
2016-May-03 06:32 099 1 gusting 4 12.8
2016-May-03 06:17 101 12.8
2016-May-03 06:02 335 12.2
2016-May-03 05:47 046 11.7
2016-May-03 05:32 030 11.1
2016-May-03 05:17 026 0 gusting 2 11.1
2016-May-03 05:02 018 11.7
2016-May-03 04:47 049 11.7
2016-May-03 04:32 007 12.2
2016-May-03 04:17 075 0 gusting 4 12.2
2016-May-03 04:02 068 12.2
2016-May-03 03:47 103 12.2
2016-May-03 03:32 170 12.8
2016-May-03 03:17 278 12.8
2016-May-03 03:02 349 12.8
2016-May-03 02:47 345 13.3
2016-May-03 02:32 075 1 gusting 7 13.9
2016-May-03 02:17 101 3 gusting 11 13.9
2016-May-03 02:02 037 6 gusting 10 13.9
2016-May-03 01:47 015 2 gusting 6 14.4
2016-May-03 01:32 032 4 gusting 13 15.0
2016-May-03 01:17 026 6 gusting 13 14.4
2016-May-03 01:02 129 6 gusting 12 15.0
2016-May-03 00:47 049 6 gusting 13 15.6
2016-May-03 00:32 058 7 gusting 13 16.1
2016-May-03 00:17 070 7 gusting 12 16.7
2016-May-03 00:02 050 6 gusting 12 16.7
2016-May-02 23:47 058 6 gusting 9 16.7
2016-May-02 23:32 067 6 gusting 13 16.7
2016-May-02 23:17 058 6 gusting 12 17.2
2016-May-02 23:02 046 1 gusting 5 17.2
2016-May-02 22:47 043 1 gusting 5 17.8
2016-May-02 22:32 039 1 gusting 7 17.8
2016-May-02 22:17 007 3 gusting 8 17.8
2016-May-02 22:03 018 3 gusting 8 18.3
2016-May-02 21:47 005 1 gusting 6 18.3
2016-May-02 21:32 036 2 gusting 6 18.9
2016-May-02 21:17 047 3 gusting 6 19.4
2016-May-02 21:02 052 1 gusting 4 20.0
2016-May-02 20:47 059 2 gusting 6 19.4
2016-May-02 20:32 006 0 gusting 1 19.4
2016-May-02 20:17 120 19.4
2016-May-02 20:02 120 20.0
2016-May-02 19:47 120 20.6
2016-May-02 19:32 128 21.1
2016-May-02 19:17 098 21.1
2016-May-02 19:02 051 22.2
2016-May-02 18:47 070 0 gusting 3 22.2
2016-May-02 18:32 068 22.8
2016-May-02 18:17 073 2 gusting 3 22.8
2016-May-02 18:02 288 22.8
2016-May-02 17:48 039 0 gusting 2 22.8
2016-May-02 17:17 120 0 gusting 2 23.3
2016-May-02 17:02 026 4 gusting 6 22.2
2016-May-02 16:47 359 5 gusting 11 22.2
2016-May-02 16:32 046 3 gusting 6 22.8
2016-May-02 16:17 275 0 gusting 7 22.8
2016-May-02 16:02 360 4 gusting 8 22.8
2016-May-02 15:47 018 1 gusting 5 22.2
2016-May-02 15:32 355 5 gusting 6 22.2
2016-May-02 15:17 280 2 gusting 5 22.2
2016-May-02 15:03 033 3 gusting 6 21.7
2016-May-02 14:47 302 0 gusting 6 21.1
2016-May-02 14:32 006 4 gusting 10 21.1
2016-May-02 14:17 329 1 gusting 7 21.1
2016-May-02 14:02 358 5 gusting 8 20.6
2016-May-02 13:47 328 2 gusting 10 20.0
2016-May-02 13:32 331 5 gusting 8 20.0
2016-May-02 13:17 022 2 gusting 6 18.9
2016-May-02 13:02 304 4 gusting 8 18.9
2016-May-02 12:47 037 18.9
2016-May-02 12:32 050 0 gusting 5 18.3
2016-May-02 12:17 100 3 gusting 5 18.3
2016-May-02 12:02 148 17.8
2016-May-02 11:48 127 1 gusting 4 17.8
2016-May-02 11:32 075 1 gusting 4 18.3
2016-May-02 11:17 101 17.8
2016-May-02 11:02 162 0 gusting 4 16.7
2016-May-02 10:47 288 0 gusting 2 16.7
2016-May-02 10:32 052 15.6
2016-May-02 10:17 304 2 gusting 4 14.4
2016-May-02 10:02 284 1 gusting 4 13.9
2016-May-02 09:47 354 1 gusting 4 13.3
2016-May-02 09:32 304 12.8
2016-May-02 09:17 049 1 gusting 3 11.7
2016-May-02 09:02 026 1 gusting 4 11.7